�������l�o���
Date,Time,MP-1(��Sv/h),MP-2(��Sv/h),MP-3(��Sv/h),MP-4(��Sv/h),MP-5(��Sv/h),MP-6(��Sv/h),MP-7(��Sv/h),MP-8(��Sv/h),����,����(m/s),���J
2023/04/05,00:00,0.568,0.833,0.499,1.040,0.734,0.325,0.580,0.547,��쐼,3.1,��
2023/04/05,00:10,0.568,0.832,0.499,1.042,0.734,0.324,0.581,0.550,��쐼,3.2,��
2023/04/05,00:20,0.568,0.834,0.499,1.038,0.733,0.324,0.580,0.549,��쐼,3.0,��
2023/04/05,00:30,0.567,0.832,0.497,1.040,0.733,0.325,0.580,0.547,�쐼,3.0,��
2023/04/05,00:40,0.568,0.832,0.497,1.039,0.733,0.325,0.581,0.550,�쐼,3.6,��
2023/04/05,00:50,0.569,0.831,0.498,1.041,0.733,0.324,0.581,0.548,��쐼,2.3,��
2023/04/05,01:00,0.568,0.833,0.499,1.039,0.732,0.325,0.579,0.550,��,2.0,��
2023/04/05,01:10,0.567,0.832,0.500,1.040,0.735,0.325,0.580,0.548,�쐼,1.1,��
2023/04/05,01:20,0.568,0.833,0.498,1.043,0.733,0.326,0.580,0.549,��,0.8,��
2023/04/05,01:30,0.567,0.829,0.499,1.040,0.734,0.324,0.580,0.549,�k,0.6,��
2023/04/05,01:40,0.569,0.832,0.497,1.040,0.734,0.324,0.580,0.549,�k�k��,1.4,��
2023/04/05,01:50,0.569,0.832,0.499,1.040,0.735,0.325,0.579,0.548,�k�k��,2.3,��
2023/04/05,02:00,0.568,0.831,0.498,1.040,0.734,0.324,0.579,0.549,�k��,3.5,��
2023/04/05,02:10,0.567,0.832,0.499,1.039,0.734,0.324,0.580,0.549,�k��,2.9,��
2023/04/05,02:20,0.569,0.833,0.498,1.041,0.734,0.325,0.580,0.550,���k��,1.7,��
2023/04/05,02:30,0.568,0.832,0.497,1.039,0.732,0.325,0.580,0.549,��,2.0,��
2023/04/05,02:40,0.569,0.833,0.498,1.041,0.734,0.325,0.580,0.549,�쓌,0.9,��
2023/04/05,02:50,0.566,0.833,0.498,1.040,0.734,0.326,0.581,0.548,��,0.8,��
2023/04/05,03:00,0.571,0.830,0.497,1.041,0.731,0.325,0.578,0.549,��쐼,1.2,��
2023/04/05,03:10,0.569,0.830,0.497,1.039,0.734,0.325,0.580,0.548,��쐼,2.0,��
2023/04/05,03:20,0.567,0.832,0.499,1.040,0.731,0.325,0.579,0.549,��,1.7,��
2023/04/05,03:30,0.569,0.833,0.498,1.037,0.733,0.324,0.579,0.549,��,1.5,��
2023/04/05,03:40,0.567,0.833,0.497,1.039,0.735,0.324,0.581,0.551,�쐼,1.1,��
2023/04/05,03:50,0.568,0.832,0.497,1.039,0.732,0.326,0.579,0.550,���쐼,1.2,��
2023/04/05,04:00,0.568,0.831,0.498,1.041,0.733,0.324,0.580,0.549,-,CALM,��
2023/04/05,04:10,0.567,0.832,0.499,1.039,0.733,0.324,0.580,0.549,���k��,0.6,��
2023/04/05,04:20,0.569,0.833,0.497,1.039,0.732,0.324,0.579,0.549,��,0.9,��
2023/04/05,04:30,0.568,0.831,0.498,1.038,0.734,0.324,0.579,0.549,���k��,0.9,��
2023/04/05,04:40,0.566,0.830,0.497,1.040,0.732,0.325,0.579,0.549,-,CALM,��
2023/04/05,04:50,0.567,0.832,0.498,1.039,0.731,0.324,0.579,0.549,-,CALM,��
2023/04/05,05:00,0.567,0.832,0.497,1.042,0.734,0.324,0.579,0.550,-,CALM,��
2023/04/05,05:10,0.569,0.831,0.499,1.039,0.732,0.325,0.580,0.551,���쐼,0.6,��
2023/04/05,05:20,0.569,0.833,0.497,1.039,0.734,0.325,0.580,0.550,-,CALM,��
2023/04/05,05:30,0.568,0.830,0.497,1.038,0.731,0.325,0.580,0.549,��쐼,1.1,��
2023/04/05,05:40,0.566,0.831,0.499,1.041,0.734,0.324,0.580,0.549,��,1.8,��
2023/04/05,05:50,0.568,0.834,0.499,1.037,0.733,0.326,0.580,0.548,��,1.7,��
2023/04/05,06:00,0.568,0.831,0.498,1.039,0.734,0.325,0.580,0.550,��,1.7,��
2023/04/05,06:10,0.567,0.831,0.499,1.040,0.732,0.324,0.579,0.550,��,2.0,��
2023/04/05,06:20,0.568,0.833,0.499,1.039,0.732,0.324,0.579,0.550,��,1.7,��
2023/04/05,06:30,0.567,0.831,0.499,1.041,0.732,0.325,0.580,0.551,��쓌,1.2,��
2023/04/05,06:40,0.568,0.834,0.498,1.037,0.732,0.324,0.582,0.551,�쓌,0.9,��
2023/04/05,06:50,0.568,0.832,0.499,1.039,0.732,0.324,0.580,0.550,���쓌,1.4,��
2023/04/05,07:00,0.568,0.834,0.499,1.040,0.733,0.324,0.582,0.550,���쓌,0.9,��
2023/04/05,07:10,0.567,0.832,0.499,1.038,0.733,0.327,0.582,0.548,���k��,0.9,��
2023/04/05,07:20,0.570,0.834,0.500,1.043,0.733,0.325,0.581,0.550,�k��,1.2,��
2023/04/05,07:30,0.568,0.834,0.500,1.037,0.733,0.326,0.583,0.549,��,0.8,��
2023/04/05,07:40,0.569,0.833,0.499,1.041,0.732,0.326,0.580,0.549,�쓌,1.4,��
2023/04/05,07:50,0.568,0.834,0.501,1.040,0.733,0.323,0.582,0.550,��쓌,2.0,��
2023/04/05,08:00,0.570,0.833,0.501,1.040,0.734,0.323,0.581,0.550,��쓌,1.1,��
2023/04/05,08:10,0.570,0.829,0.499,1.041,0.735,0.324,0.583,0.550,-,CALM,��
2023/04/05,08:20,0.570,0.830,0.501,1.041,0.733,0.322,0.582,0.551,��,1.2,��
2023/04/05,08:30,0.569,0.828,0.500,1.040,0.735,0.324,0.579,0.550,��,2.6,��
2023/04/05,08:40,0.571,0.830,0.500,1.044,0.736,0.323,0.581,0.550,��,3.3,��
2023/04/05,08:50,0.573,0.831,0.500,1.043,0.734,0.323,0.579,0.548,��쓌,2.3,��
2023/04/05,09:00,0.569,0.830,0.501,1.043,0.735,0.325,0.580,0.548,��쓌,1.7,��
2023/04/05,09:10,0.570,0.830,0.501,1.043,0.735,0.323,0.580,0.549,��쓌,1.9,��
2023/04/05,09:20,0.571,0.830,0.501,1.043,0.734,0.326,0.579,0.550,�쓌,2.0,��
2023/04/05,09:30,0.570,0.831,0.500,1.041,0.733,0.324,0.580,0.549,�쓌,2.3,��
2023/04/05,09:40,0.571,0.832,0.499,1.041,0.735,0.325,0.581,0.549,��쓌,2.3,��
2023/04/05,09:50,0.568,0.829,0.500,1.041,0.735,0.325,0.582,0.549,��쓌,3.7,��
2023/04/05,10:00,0.569,0.830,0.499,1.042,0.732,0.324,0.580,0.549,��쓌,4.4,��
2023/04/05,10:10,0.567,0.831,0.499,1.043,0.731,0.323,0.581,0.547,��쓌,4.8,��
2023/04/05,10:20,0.571,0.832,0.499,1.042,0.734,0.323,0.581,0.548,��쓌,8.3,��
2023/04/05,10:30,0.569,0.833,0.499,1.042,0.732,0.324,0.581,0.549,��쓌,7.5,��
2023/04/05,10:40,0.569,0.831,0.499,1.043,0.730,0.324,0.580,0.547,��쓌,8.7,��
2023/04/05,10:50,0.570,0.833,0.498,1.042,0.733,0.323,0.580,0.548,��쓌,8.2,��
2023/04/05,11:00,0.570,0.833,0.498,1.044,0.730,0.324,0.580,0.548,��쓌,9.0,��
2023/04/05,11:10,0.571,0.833,0.497,1.042,0.733,0.325,0.581,0.548,��쓌,9.6,��
2023/04/05,11:20,0.570,0.832,0.499,1.043,0.732,0.326,0.581,0.549,��쓌,9.6,��
2023/04/05,11:30,0.570,0.829,0.498,1.044,0.735,0.324,0.582,0.548,��쓌,10.5,��
2023/04/05,11:40,0.570,0.833,0.498,1.042,0.734,0.324,0.581,0.550,��쓌,11.3,��
2023/04/05,11:50,0.570,0.832,0.500,1.044,0.735,0.326,0.581,0.549,��쓌,10.3,��
2023/04/05,12:00,0.569,0.833,0.499,1.045,0.733,0.324,0.581,0.548,��쓌,12.4,��
2023/04/05,12:10,0.570,0.832,0.499,1.043,0.733,0.324,0.582,0.548,��,11.0,��
2023/04/05,12:20,0.571,0.831,0.499,1.042,0.734,0.324,0.581,0.548,��,11.8,��
2023/04/05,12:30,0.571,0.833,0.501,1.044,0.733,0.325,0.581,0.550,��쓌,11.6,��
2023/04/05,12:40,0.571,0.833,0.501,1.044,0.734,0.325,0.582,0.547,��,11.9,��
2023/04/05,12:50,0.572,0.834,0.499,1.046,0.735,0.325,0.581,0.549,��쓌,12.2,��
2023/04/05,13:00,0.570,0.831,0.500,1.045,0.736,0.324,0.583,0.548,��쓌,11.3,��
2023/04/05,13:10,0.570,0.832,0.500,1.042,0.734,0.325,0.581,0.549,��쓌,10.9,��
2023/04/05,13:20,0.571,0.830,0.500,1.043,0.736,0.325,0.583,0.548,��,10.6,��
2023/04/05,13:30,0.571,0.833,0.499,1.043,0.734,0.326,0.582,0.548,��쓌,10.2,��
2023/04/05,13:40,0.570,0.832,0.499,1.043,0.736,0.325,0.582,0.549,��,8.0,��
2023/04/05,13:50,0.571,0.835,0.501,1.043,0.735,0.324,0.582,0.548,��,8.3,��
2023/04/05,14:00,0.571,0.833,0.501,1.043,0.734,0.325,0.584,0.549,��쓌,9.7,��
2023/04/05,14:10,0.572,0.835,0.500,1.043,0.736,0.325,0.583,0.547,��쓌,9.3,��
2023/04/05,14:20,0.573,0.832,0.500,1.043,0.736,0.326,0.583,0.550,��쓌,8.2,��
2023/04/05,14:30,0.571,0.836,0.500,1.042,0.736,0.327,0.581,0.548,��쓌,9.0,��
2023/04/05,14:40,0.569,0.835,0.501,1.043,0.735,0.325,0.584,0.549,��쓌,11.3,��
2023/04/05,14:50,0.571,0.834,0.500,1.043,0.736,0.327,0.582,0.549,��쓌,10.0,��
2023/04/05,15:00,0.571,0.836,0.501,1.043,0.736,0.326,0.581,0.550,��쓌,11.3,��
2023/04/05,15:10,0.571,0.834,0.500,1.044,0.736,0.324,0.583,0.549,��,9.2,��
2023/04/05,15:20,0.571,0.835,0.499,1.045,0.736,0.325,0.584,0.549,��,8.4,��
2023/04/05,15:30,0.571,0.835,0.500,1.046,0.735,0.326,0.583,0.547,��,10.5,��
2023/04/05,15:40,0.572,0.836,0.500,1.043,0.735,0.325,0.582,0.550,��,9.2,��
2023/04/05,15:50,0.571,0.835,0.501,1.043,0.735,0.326,0.581,0.549,��쓌,9.7,��
2023/04/05,16:00,0.571,0.833,0.498,1.046,0.735,0.325,0.583,0.548,��쓌,10.5,��
2023/04/05,16:10,0.573,0.834,0.499,1.046,0.734,0.324,0.583,0.548,��,10.2,��
2023/04/05,16:20,0.571,0.835,0.500,1.048,0.736,0.325,0.582,0.549,��,8.1,��
2023/04/05,16:30,0.570,0.832,0.499,1.044,0.734,0.326,0.582,0.548,��,8.5,��
2023/04/05,16:40,0.570,0.834,0.498,1.045,0.736,0.325,0.582,0.549,��,9.1,��
2023/04/05,16:50,0.572,0.834,0.500,1.044,0.733,0.324,0.581,0.548,��,7.8,��
2023/04/05,17:00,0.572,0.834,0.499,1.045,0.736,0.324,0.583,0.548,��,6.8,��
2023/04/05,17:10,0.570,0.834,0.499,1.046,0.734,0.325,0.581,0.549,��,8.3,��
2023/04/05,17:20,0.570,0.835,0.499,1.046,0.736,0.324,0.582,0.548,��,8.7,��
2023/04/05,17:30,0.572,0.834,0.498,1.044,0.736,0.325,0.583,0.550,��,9.3,��
2023/04/05,17:40,0.571,0.835,0.499,1.047,0.736,0.325,0.581,0.549,��,8.4,��
2023/04/05,17:50,0.571,0.836,0.502,1.047,0.736,0.325,0.583,0.550,��,7.9,��
2023/04/05,18:00,0.572,0.835,0.501,1.046,0.736,0.325,0.584,0.548,��,8.5,��
2023/04/05,18:10,0.572,0.833,0.501,1.045,0.732,0.325,0.582,0.550,��,8.4,��
2023/04/05,18:20,0.572,0.835,0.499,1.048,0.734,0.325,0.582,0.550,��,8.5,��
2023/04/05,18:30,0.572,0.836,0.501,1.047,0.737,0.324,0.581,0.551,��,8.4,��
2023/04/05,18:40,0.570,0.835,0.501,1.045,0.735,0.325,0.582,0.552,��,7.7,��
2023/04/05,18:50,0.570,0.834,0.501,1.045,0.737,0.324,0.582,0.551,��,6.7,��
2023/04/05,19:00,0.572,0.837,0.502,1.045,0.736,0.324,0.583,0.550,��,7.6,��
2023/04/05,19:10,0.572,0.834,0.501,1.044,0.736,0.325,0.584,0.552,��,7.6,��
2023/04/05,19:20,0.572,0.835,0.503,1.045,0.736,0.326,0.583,0.551,��,7.5,��
2023/04/05,19:30,0.571,0.838,0.502,1.044,0.735,0.326,0.583,0.551,��,7.0,��
2023/04/05,19:40,0.572,0.838,0.500,1.047,0.737,0.327,0.583,0.551,��,7.9,��
2023/04/05,19:50,0.574,0.839,0.503,1.045,0.737,0.326,0.584,0.550,��,6.6,��
2023/04/05,20:00,0.572,0.838,0.501,1.045,0.737,0.325,0.584,0.551,��,6.7,��
2023/04/05,20:10,0.571,0.836,0.501,1.044,0.738,0.325,0.584,0.550,��,6.3,��
2023/04/05,20:20,0.573,0.839,0.501,1.044,0.739,0.325,0.584,0.553,��,6.6,��
2023/04/05,20:30,0.574,0.837,0.502,1.044,0.738,0.326,0.584,0.549,��쓌,6.7,��
2023/04/05,20:40,0.573,0.838,0.500,1.044,0.737,0.326,0.586,0.551,��,5.7,��
2023/04/05,20:50,0.572,0.837,0.502,1.045,0.738,0.326,0.586,0.549,��,6.2,��
2023/04/05,21:00,0.571,0.836,0.502,1.045,0.736,0.327,0.583,0.552,��,7.0,��
2023/04/05,21:10,0.574,0.837,0.501,1.046,0.738,0.328,0.584,0.551,��,7.0,��
2023/04/05,21:20,0.572,0.835,0.501,1.045,0.737,0.325,0.583,0.552,��,6.9,��
2023/04/05,21:30,0.574,0.839,0.501,1.046,0.737,0.326,0.585,0.551,��,6.5,��
2023/04/05,21:40,0.572,0.838,0.501,1.046,0.737,0.326,0.585,0.550,��쓌,6.0,��
2023/04/05,21:50,0.572,0.837,0.500,1.046,0.739,0.326,0.585,0.551,��,5.6,��
2023/04/05,22:00,0.571,0.838,0.503,1.045,0.737,0.326,0.584,0.552,��,5.8,��
2023/04/05,22:10,0.574,0.838,0.501,1.046,0.736,0.326,0.583,0.551,��쓌,6.4,��
2023/04/05,22:20,0.575,0.838,0.501,1.046,0.737,0.326,0.584,0.551,��쓌,6.6,��
2023/04/05,22:30,0.574,0.837,0.500,1.047,0.738,0.328,0.584,0.552,��,4.8,��
2023/04/05,22:40,0.572,0.838,0.502,1.048,0.738,0.325,0.583,0.552,��,4.2,��
2023/04/05,22:50,0.574,0.837,0.501,1.047,0.740,0.326,0.584,0.552,��,3.8,��
2023/04/05,23:00,0.573,0.838,0.501,1.046,0.738,0.326,0.583,0.552,��,4.5,��
2023/04/05,23:10,0.571,0.837,0.500,1.045,0.738,0.326,0.585,0.551,��쓌,4.5,��
2023/04/05,23:20,0.571,0.840,0.500,1.045,0.737,0.326,0.583,0.552,��쓌,5.9,��
2023/04/05,23:30,0.573,0.837,0.499,1.045,0.737,0.326,0.582,0.551,��,5.8,��
2023/04/05,23:40,0.575,0.837,0.502,1.047,0.738,0.326,0.583,0.551,��쓌,6.8,��
2023/04/05,23:50,0.574,0.836,0.501,1.045,0.738,0.327,0.583,0.551,��쓌,7.8,��
